Location: Sungai Apap
(2.6167°N, 113.3833°E)
Time: 14:58:27
(UTC+00:00)

H-2A R/B - Pass Details

Date: 25 May 2024
Orbit: 732 x 832 km, 98.2° (Epoch: 12 June)

Event Time Altitude Azimuth Distance (km) Brightness Sun altitude
Rises 21:31:20 0° 340° (NNW) 3,353 5.3 -11.2°
Reaches altitude 10° 21:34:44 10° 317° (NW) 2,413 4.4 -10.4°
Maximum altitude 21:37:39 15° 284° (WNW) 2,071 3.8 -9.7°
Enters shadow 21:40:14 11° 253° (WSW) 2,323 3.8 -9.1°
